Regional Weather Roundup
Issued by NWS

Home | Current Version | Previous Version | Graphics & Text | Print | Product List | Glossary On
Versions: 1 2 3 4 5 6 7 8 9 10 11 12 13 14 15 16 17 18 19 20 21 22 23 24 25 26 27 28 29 30 31 32 33 34 35 36 37 38 39 40 41 42 43 44 45 46 47 48 49 50
000
ASUS44 KMEG 130810
RWRTN
TENNESSEE HOURLY STATE WEATHER ROUNDUP
NATIONAL WEATHER SERVICE MEMPHIS TN
300 AM CDT SUN JUL 13 2014

TNZ002-004-019-021-049-052-054-088>092-130900-
WEST TENNESSEE

CITY           SKY/WX    TMP DP  RH WIND       PRES   REMARKS
MEMPHIS INTL   PTCLDY    76  70  82 S3        30.04F
NWS MEMPHIS      N/A     74 N/A N/A MISG        N/A
JACKSON        CLEAR     73  69  87 S5        30.05F
DYERSBURG      CLEAR     75  64  69 CALM      30.04F
UNION CITY     CLEAR     72  70  94 S5        30.02F
PARIS          CLEAR     70  66  86 CALM      30.05F
LEXINGTON      CLEAR     70  70 100 CALM      30.05F
SILERTON         N/A     70  69  98 S1          N/A
SAVANNAH       CLEAR     68  68 100 CALM      30.07F
$$

TNZ008-025-027-028-033-062-065-066-130900-
NORTH MIDDLE TENNESSEE

CITY           SKY/WX    TMP DP  RH WIND       PRES   REMARKS
NASHVILLE      PTCLDY    73  68  84 S5        30.06F
DICKSON        CLEAR     75  68  78 SW6       30.06F
PORTLAND       PTCLDY    73  66  78 S5        30.06F
CLARKSVILLE    CLEAR     74  68  81 CALM      30.04F
LEBANON        CLEAR     71  65  81 CALM      30.06
SMYRNA         CLEAR     71  70  97 CALM      30.07F
MURFREESBORO   CLEAR     74  68  81 CALM      30.07F
COOKEVILLE     CLEAR     66  66 100 CALM      30.10F
GALLATIN       CLEAR     72  69  90 CALM      30.07F
CROSSVILLE     CLEAR     70  66  87 CALM      30.16F
$$

TNZ061-075-076-078-094-096-097-130900-
SOUTH MIDDLE TENNESSEE

CITY           SKY/WX    TMP DP  RH WIND       PRES   REMARKS
LEWISBURG      CLEAR     69  67  93 CALM      30.08F
FAYETTEVILLE   CLEAR     72  70  94 S7        30.10F
TULLAHOMA      CLEAR     70  66  88 CALM      30.12F
WINCHESTER     CLEAR     72  70  94 CALM      30.11F
MCMINNVILLE    CLEAR     70  70 100 CALM      30.11F
COLUMBIA       CLEAR     72  72 100 CALM      30.07F
SHELBYVILLE    CLEAR     70  70 100 E3        30.09F
$$

TNZ017-018-042-046-047-130900-
NORTHEAST TENNESSEE

CITY           SKY/WX    TMP DP  RH WIND       PRES   REMARKS
TRI CITIES     MOCLDY    69  65  86 CALM      30.16F
ELIZABETHTON   CLOUDY    68  64  88 CALM      30.18S
$$

TNZ012-013-036-069-073-074-130900-
CENTRAL EAST TENNESSEE

CITY           SKY/WX    TMP DP  RH WIND       PRES   REMARKS
KNOXVILLE      PTCLDY    72  68  87 CALM      30.11F
OAK RIDGE      CLEAR     74  69  85 CALM      30.13F
GATLINBURG     SUNNY     68  66  94 CALM      30.12F
MORRISTOWN     SUNNY     70  70 100 CALM      30.15F
$$

TNZ083-085-099-130900-
SOUTHEAST TENNESSEE

CITY           SKY/WX    TMP DP  RH WIND       PRES   REMARKS
CHATTANOOGA    CLEAR     75  71  87 CALM      30.10F
$$

SKY/WX REPORTED AS FAIR MEANS FEW OR NO CLOUDS BELOW
12 THOUSAND FEET.



USA.gov is the U.S. government's official web portal to all federal, state and local government web resources and services.